User: anonymous   Login
Location: Knowlton
(51.2333°N, 1.2667°E)
Time: 20:38:37
(UTC+00:00)
Language:

Cosmos 841 Rocket - Orbit

View from above orbital plane
View from above orbital plane
View from above satellite
View from above satellite

Ground track
Ground track

The orbit data is extracted from the following two-line orbital elements,

1  9023U 76069B   21172.60664162  .00000004  00000-0  98006-5 0  9998
2  9023  74.0437 271.9022 0016561  73.7857 286.5118 14.39684954355704
Epoch (UTC): 21 June 2021 14:33:33
Eccentricity: 0.0016561
inclination: 74.0437°
perigee height: 748 km
apogee height: 771 km
right ascension of ascending node: 271.9022°
argument of perigee: 73.7857°
revolutions per day: 14.39684954
mean anomaly at epoch: 286.5118°
orbit number at epoch: 35570

The dashed part of the orbit path shows where the satellite is in the earth's shadow,  

DLR